This is the latest recevied weather packets stored in our database for station/object SP3SWJ-13. If no packets are shown the sender has not sent any weather packets the latest 10 day(s).
| Time | Temp. | Humidity | Pressure | Rain* | Wind** | Luminosity | Snow |
|---|---|---|---|---|---|---|---|
| 1777910794 | 22.78° C | 43% | 1002.1 hPa | - | - | 77 W/m² | - |
| 1777910492 | 22.78° C | 43% | 1002.1 hPa | - | - | 70 W/m² | - |
| 1777910192 | 22.78° C | 42% | 1002.1 hPa | - | - | 81 W/m² | - |
| 1777909891 | 22.78° C | 42% | 1002.2 hPa | - | - | 94 W/m² | - |
| 1777909590 | 23.33° C | 41% | 1002.1 hPa | - | - | 107 W/m² | - |
| 1777909289 | 23.33° C | 40% | 1002.1 hPa | - | - | 166 W/m² | - |
| 1777908989 | 23.33° C | 41% | 1002.2 hPa | - | - | 214 W/m² | - |
| 1777908687 | 23.33° C | 41% | 1002.3 hPa | - | - | 200 W/m² | - |
| 1777908386 | 23.33° C | 41% | 1002.2 hPa | - | - | 178 W/m² | - |
| 1777908085 | 23.33° C | 42% | 1002.2 hPa | - | - | 163 W/m² | - |
| 1777907784 | 22.78° C | 43% | 1002.2 hPa | - | - | 143 W/m² | - |
| 1777907483 | 23.33° C | 42% | 1002.2 hPa | - | - | 124 W/m² | - |
| 1777907182 | 23.33° C | 42% | 1002.2 hPa | - | - | 108 W/m² | - |
| 1777906881 | 23.33° C | 42% | 1002.3 hPa | - | - | 101 W/m² | - |
| 1777906580 | 23.33° C | 41% | 1002.4 hPa | - | - | 104 W/m² | - |
| 1777906279 | 23.89° C | 41% | 1002.3 hPa | - | - | 140 W/m² | - |
| 1777905978 | 24.44° C | 39% | 1002.4 hPa | - | - | 184 W/m² | - |
| 1777905677 | 23.89° C | 39% | 1002.4 hPa | - | - | 372 W/m² | - |
| 1777905376 | 23.33° C | 41% | 1002.4 hPa | - | - | 263 W/m² | - |
| 1777905076 | 23.89° C | 40% | 1002.4 hPa | - | - | 198 W/m² | - |
| 1777904774 | 23.33° C | 41% | 1002.4 hPa | - | - | 188 W/m² | - |
| 1777904473 | 24.44° C | 40% | 1002.4 hPa | - | - | 162 W/m² | - |
| 1777904173 | 24.44° C | 39% | 1002.4 hPa | - | - | 274 W/m² | - |
| 1777903872 | 23.89° C | 40% | 1002.4 hPa | - | - | 237 W/m² | - |
| 1777903571 | 23.89° C | 40% | 1002.5 hPa | - | - | 191 W/m² | - |
* Rain since midnight (hover to see other rain measurements)
** Current wind speed in m/s (hover to see current wind gust speed)